Погода в Нижнеспасском

Россия / Тамбовская область     52°37′42″N   41°46′24″E
темп.,
°C
ветер,
м/с
пор.,
м/с
влажн.,
%
обл.,
%
осадки,
мм/ч
давл.,
гПа
погр.,
м
14 июня, пн
пн1400:00+15ю22955 0.0 101226
03:00+15юв12955 0.0 101313
06:00+17юв12920 0.0 1013100
09:00+21юв22740 0.4 1014600
12:00+24вюв226425 0.7 10141199
15:00+24в226492 2.1 10141181
18:00+23всв1276100 0.9 1014249
21:00+18всв1189100 1.0 101411
15 июня, вт
вт1500:00+16всв1193100 0.1 101411
03:00+15св2296100 0.1 101422
06:00+17всв2493100 0.0 1014154
09:00+21всв2375100 0.0 1013649
12:00+22всв456698 0.2 10121128
15:00+21всв2476100 0.5 1011560
18:00+21св358338 1.0 1010390
21:00+17с24948 1.3 101082
16 июня, ср
ср1600:00+16ссз24969 0.0 100988
03:00+15ссз23975 0.0 100968
06:00+17сз25925 0.0 1009164
09:00+23сз34665 0.0 1009816
12:00+25сз445910 0.4 10101449
15:00+27сз465111 0.9 10101833
18:00+23сз577736 0.8 1011593
21:00+19с411935 1.4 1013514
17 июня, чт
чт1700:00+16с411870 0.0 1015408
03:00+14ссв412910 0.0 1017398
06:00+16ссв310860 0.0 1019398
09:00+20св47510 0.0 10201040
12:00+22св57393 0.0 10211560
15:00+23св56380 0.0 10211680
18:00+21ссв47540 0.0 10221193
21:00+15ссв311760 0.0 1023248
18 июня, пт
пт1800:00+13св24820 0.0 102476
03:00+12ссв26855 0.0 102594
06:00+14ссв37770 0.0 1026216
09:00+20св35540 0.0 1026802
12:00+23всв45430 0.0 10261769
15:00+23всв45440 0.0 10261825
18:00+22всв34560 0.0 10261163
21:00+16в11780 0.0 102711